Location: Peterborough
(44.3091°N, 78.3197°W)
Time: 06:06:53
(UTC-04:00)

Vanguard 2 Rocket - All Passes

Search period start: 22 March 2023 00:00
Search period end: 01 April 2023 00:00
Orbit: 555 x 3316 km, 32.9° (Epoch: 21 March)

Date Brightness Start Highest point End Pass type
(mag) Time Alt. Az. Time Alt. Az. Time Alt. Az.
22 Mar - 00:26:05 10° WSW 00:37:49 51° S 00:55:46 10° ESE visible
22 Mar - 02:40:04 10° W 02:53:47 38° SSW 03:11:06 10° SSE visible
22 Mar - 04:58:52 10° WSW 05:09:07 17° SW 05:19:53 10° S visible
22 Mar - 19:07:57 10° SSE 19:10:11 11° SE 19:12:44 10° ESE daylight
22 Mar - 21:14:23 10° SW 21:21:47 37° SSE 21:33:53 10° E visible
22 Mar - 23:25:34 10° WSW 23:35:44 51° S 23:52:20 10° ESE visible
23 Mar - 01:38:37 10° W 01:51:18 43° SSW 02:08:59 10° SE visible
23 Mar - 03:54:46 10° W 04:06:57 24° SW 04:20:51 10° S visible
23 Mar - 20:15:10 10° SSW 20:21:05 27° SSE 20:30:07 10° E visible
23 Mar - 22:25:23 10° WSW 22:34:03 47° S 22:48:42 10° ESE visible
24 Mar - 00:37:39 10° W 00:48:58 46° SSW 01:06:13 10° SE visible
24 Mar - 02:52:10 10° W 03:04:39 30° SSW 03:20:15 10° SSE visible
24 Mar - 05:18:08 10° SW 05:19:39 10° SW 05:21:12 10° SW visible
24 Mar - 19:16:46 10° S 19:20:47 17° SE 19:26:05 10° ESE daylight
24 Mar - 21:25:30 10° SW 21:32:48 41° SSE 21:45:05 10° E visible
24 Mar - 23:37:04 10° WSW 23:46:56 48° S 00:03:00 10° ESE visible
25 Mar - 01:50:27 10° W 02:02:18 35° SSW 02:18:38 10° SSE visible
25 Mar - 04:08:38 10° WSW 04:17:38 16° SW 04:27:39 10° S visible
25 Mar - 20:25:59 10° SW 20:32:00 32° SSE 20:41:33 10° E visible
25 Mar - 22:36:48 10° WSW 22:45:15 47° S 22:59:33 10° ESE visible
26 Mar - 00:49:20 10° W 01:00:06 40° SSW 01:16:15 10° SE visible
26 Mar - 03:04:54 10° WSW 03:15:29 22° SW 03:28:23 10° S visible
26 Mar - 19:26:57 10° SSW 19:31:34 22° SSE 19:38:07 10° ESE daylight
26 Mar - 21:36:48 10° WSW 21:43:57 43° S 21:56:05 10° ESE visible
26 Mar - 23:48:39 10° WSW 23:58:08 43° S 00:13:21 10° SE visible
27 Mar - 02:02:38 10° WSW 02:13:19 27° SSW 02:27:32 10° SSE night (unlit)
27 Mar - 18:29:07 10° SSE 18:31:24 12° SE 18:34:05 10° ESE daylight
27 Mar - 20:37:05 10° SW 20:43:03 35° SSE 20:52:46 10° ESE visible
27 Mar - 22:48:17 10° WSW 22:56:28 43° S 23:10:10 10° ESE visible
28 Mar - 01:01:14 10° WSW 01:11:13 32° SSW 01:25:44 10° SSE visible
28 Mar - 03:19:10 10° WSW 03:26:21 14° SW 03:34:33 10° SSW visible
28 Mar - 19:37:42 10° SSW 19:42:30 26° SSE 19:49:40 10° ESE daylight
28 Mar - 21:48:13 10° WSW 21:55:10 42° S 22:06:56 10° ESE visible
29 Mar - 00:00:22 10° WSW 00:09:20 36° SSW 00:23:18 10° SE visible
29 Mar - 02:15:35 10° WSW 02:24:18 19° SSW 02:35:19 10° S night (unlit)
29 Mar - 18:38:50 10° S 18:42:13 17° SSE 18:46:35 10° ESE daylight
29 Mar - 20:48:21 10° SW 20:54:12 37° S 21:03:49 10° ESE visible
29 Mar - 22:59:53 10° WSW 23:07:43 38° S 23:20:29 10° SE visible
30 Mar - 01:13:33 10° WSW 01:22:20 24° SSW 01:34:25 10° SSE visible
30 Mar - 19:48:43 10° SW 19:53:33 30° SSE 20:00:56 10° ESE daylight
30 Mar - 21:59:42 10° WSW 22:06:24 38° S 22:17:32 10° ESE visible
31 Mar - 00:12:21 10° WSW 00:20:32 28° SSW 00:32:38 10° SSE visible
31 Mar - 02:30:52 10° SW 02:35:20 12° SW 02:40:20 10° SSW night (unlit)
31 Mar - 18:49:25 10° SSW 18:53:10 21° SSE 18:58:17 10° ESE daylight
31 Mar - 20:59:44 10° WSW 21:05:25 36° S 21:14:39 10° ESE visible
31 Mar - 23:11:40 10° WSW 23:18:58 30° SSW 23:30:20 10° SE visible
